Other Public Products
Issued by NWS Grand Forks, ND

Home | Current Version | Previous Version | Graphics & Text | Print | Product List | Glossary On
Versions: 1 2 3 4 5 6 7 8 9 10 11 12 13 14 15 16 17 18 19 20 21 22 23 24 25 26 27 28 29 30 31 32 33 34 35 36 37 38 39 40 41 42 43 44 45 46 47 48 49 50
000
FPUS83 KFGF 241710
OPUFGF
PRAIRIE TO PINES WEATHER ROUNDUP
NATIONAL WEATHER SERVICE EASTERN NORTH DAKOTA/GRAND FORKS ND
1200 PM CDT FRI MAR 24 2017

 **SATELLITE DATA USED TO AUGMENT SKY COVER AT AUTOMATED STATIONS**
 *****  WEATHER ACROSS EASTERN NORTH DAKOTA  *****

CITY           SKY/WX    TMP DP  RH WIND       PRES   REMARKS
GRAND FORKS    PTSUNNY   35  29  78 N16       30.20R
GRAND FORKS AF FAIR      35  28  75 N15       30.21R
GRAND CITY NWS NOT AVBL
BUXTON         NOT AVBL
DEVILS LAKE    PTSUNNY   31  25  78 NE10      30.21R WCI  22
FARGO          FAIR      38  31  76 N17       30.16R
WAHPETON ARPT  CLOUDY    37  32  81 N14       30.15R
$$

 *****  WEATHER ACROSS CENTRAL AND WESTERN NORTH DAKOTA  *****

CITY           SKY/WX    TMP DP  RH WIND       PRES   REMARKS
JAMESTOWN      FAIR      35  29  78 N10       30.18R
BISMARCK       FAIR      38  31  76 E8        30.19R
MINOT          PTSUNNY   35  27  72 E13       30.18R
MINOT AFB      PTSUNNY   32  27  80 SE10      30.18R WCI  24
GARRISON         N/A     33  28  81 SE12      30.17R WCI  24
WILLISTON      FAIR      44  30  57 SE8       30.13R
DICKINSON      FAIR      44  31  60 VRB6      30.11R
HETTINGER      CLOUDY    38  36  92 SE3       30.15R FOG
$$

 *****  OTHER OBSERVATIONS NORTHEAST NORTH DAKOTA  *****

CITY           SKY/WX    TMP DP  RH WIND       PRES   REMARKS
WALHALLA       NOT AVBL
LANGDON        CLOUDY    32  25  74 NE13      30.19R WCI  22
CAVALIER         N/A     32  27  80 N10G16    30.22R WCI  24
GRAFTON        CLOUDY    32  28  86 N14       30.23R WCI  22
CANDO          NOT AVBL
FORT TOTTEN      N/A     34  27  75 NE8       29.95S
ROLLA          FAIR      28  25  86 NE10      30.19R WCI  19
RUGBY            N/A     30  27  86 E10       30.20R WCI  21
 ***** THE ABOVE OBSERVATIONS ARE NON NWS ARE NOT QUALITY
        CONTROLLED AND MAY MIS-REPORT RAIN FOR SNOW...
$$

 *****  OTHER OBSERVATIONS SOUTHEAST NORTH DAKOTA *****

CITY           SKY/WX    TMP DP  RH WIND       PRES   REMARKS
COOPERSTOWN    PTSUNNY   34  28  80 N14       30.19R WCI  24
VALLEY CITY    FAIR      36  32  87 N13       30.19R
OAKES          NOT AVBL
GWINNER        CLOUDY    36  34  93 MISG      30.17R
SHEYENNE NWR     N/A     37  31  78 N10       29.95S
BUFFALO        NOT AVBL
WYNDMERE       NOT AVBL
 ***** THE ABOVE OBSERVATIONS ARE NON NWS ARE NOT QUALITY
       CONTROLLED AND MAY MIS-REPORT RAIN FOR SNOW...
$$

  *****  WEATHER ACROSS NORTHERN MINNESOTA  *****

CITY           SKY/WX    TMP DP  RH WIND       PRES   REMARKS
FLAG ISLAND    CLOUDY    32  23  69 N12       30.16R WCI  23
WARROAD        PTSUNNY   36  27  69 N12       30.17R
ROSEAU         FAIR      36  28  75 N12       30.17R
HALLOCK        CLOUDY    34  28  80 N10       30.20R
THF RVR FALLS  CLOUDY    35  27  72 N14       30.17R
HALSTAD          N/A     33  28  83 N16         N/A  WCI  23
FOSSTON        CLOUDY    36  32  87 N8        30.14R
BAUDETTE       FAIR      37  26  64 N10G20    30.12R
WASKISH        CLOUDY    39  30  70 MISG      30.12R
CROOKSTON      CLOUDY    34  30  86 N12       30.19R
$$
  *****  WEATHER ACROSS CENTRAL AND WEST MINNESOTA  *****

CITY           SKY/WX    TMP DP  RH WIND       PRES   REMARKS
BEMIDJI        CLOUDY    35  31  87 N8        30.11R
PARK RAPIDS    CLOUDY    38  29  70 N9        30.09R
WADENA         CLOUDY    36  34  93 N8        30.10R
DETROIT LAKES  PTSUNNY   37  34  87 N7        30.13R
MOORHEAD       PTSUNNY   37  30  75 N14       30.16R
FERGUS FALLS   CLOUDY    39  34  81 N10       30.17R
ELBOW LAKE     CLOUDY    37  33  87 N8        30.12R FOG
MORRIS MN      PTSUNNY   37  36  93 N10       30.11R
STAPLES        CLOUDY    34  34 100 N7        30.10R
WHEATON        CLOUDY    37  34  87 NW12G17   30.16R
$$
  *****  WEATHER ELSEWHERE ACROSS MINNESOTA  *****

CITY           SKY/WX    TMP DP  RH WIND       PRES   REMARKS
DULUTH         CLOUDY    35  33  92 N8        30.05R FOG
INTRNTL FALLS  CLOUDY    38  29  70 NE7       30.10R
ELY            CLOUDY    36  34  93 CALM      30.06R FOG
CLOQUET        CLOUDY    36  32  87 N5        30.06R FOG
BRAINERD       CLOUDY    37  33  85 N6        30.09R
HIBBING        CLOUDY    34  32  92 N7        30.07R
ALEXANDRIA     CLOUDY    36  34  92 N9        30.09R
SAINT CLOUD    CLOUDY    40  35  83 N13       30.06R
MINNEAPOLIS    CLOUDY    40  35  83 NE13      30.02R
$$

  *****  WEATHER ACROSS SOUTH DAKOTA  *****

CITY           SKY/WX    TMP DP  RH WIND       PRES   REMARKS
SIOUX FALLS    CLOUDY    41  37  86 NE17      30.03R
BROOKINGS      CLOUDY    38  34  85 N17       30.01F
WATERTOWN      CLOUDY    35  34  96 N16       30.07S FOG
HURON          CLOUDY    39  36  89 N18       30.09S
SISSETON         N/A     38  35  89 N20       30.13R
ABERDEEN       CLOUDY    37  30  75 NE13G23   30.15R
MITCHELL       PTSUNNY   44  37  76 N18       30.06R
PIERRE         FAIR      49  35  58 N9        30.11R
MOBRIDGE       FAIR      48  32  53 N10       30.12R
RAPID CITY     FAIR      55  37  50 N12       30.11S
$$

  *****  SOME WEATHER IN NEARBY STATES *****

CITY           SKY/WX    TMP DP  RH WIND       PRES   REMARKS
GLASGOW MT     FAIR      45  29  53 VRB3      30.05F
GREAT FALLS MT FAIR      52  20  28 S18       29.93F
CHEYENNE WY    PTSUNNY   42  32  67 N25G33    30.11R
SCOTTSBLUFF NE FAIR      51  35  54 N18G28    30.10R
OMAHA NE       CLOUDY    48  43  82 N15       29.92R
DES MOINES IA  LGT RAIN  51  47  86 NW8       29.90R FOG
DAVENPORT IA   FAIR      78  44  29 SW22G33   29.87F
CHICAGO IL     FAIR      75  49  39 SW18G28   29.91S
EAU CLAIRE WI  LGT RAIN  39  38  96 N6        30.00R
LA CROSSE WI   LGT RAIN  42  40  92 NE10      29.91F FOG
$$

  *****  SOME NATIONAL WEATHER *****

CITY           SKY/WX    TMP DP  RH WIND       PRES   REMARKS
LA GUARDIA NY  CLOUDY    49  22  34 S14G26    30.32F
RALEIGH NC     PTSUNNY   65  43  44 SW15      30.47F
ATLANTA GA     FAIR      67  48  50 SE14G22   30.41F
NEW ORLEANS LA PTSUNNY   77  65  66 S18G28    30.20R
OKLAHOMA CITY  FAIR      73  49  42 S23       29.74F
ALBUQUERQUE NM PTSUNNY   54  27  35 N25G33    30.04S
SALT LAKE CITY FAIR      48  37  65 SE14      30.22S
LOS ANGELES CA FAIR      61  49  64 SE5       30.26R
BOISE ID       CLOUDY    53  28  38 SE17G29   30.02R
SEATTLE WA     LGT RAIN  47  43  86 S9G22     29.80R
$$

*** WEATHER ACROSS MANITOBA...SASKATCHEWAN AND ONTARIO ***
                ***ONTARIO***

CITY           SKY/WX    TMP DP  RH WIND       PRES   REMARKS
GERALDTON      CLOUDY    28  19  69 N9G23     30.07R WCI  20
THUNDER BAY    PTSUNNY   37  32  81 NE7       30.06R
SIOUX LOOKOUT  CLOUDY    32  21  64 N7        30.14R
TORONTO        CLOUDY    46  39  76 SW10      29.96F
BIG TROUT LK   SUNNY      7  -6  56 NW8       30.35R WCI  -6
PICKLE LAKE    MOSUNNY   25   7  46 NE9G17    30.19R WCI  15
DRYDEN         CLOUDY    32  25  74 N10G18    30.13R WCI  24
KENORA         CLOUDY    32  23  69 N8        30.15R WCI  25
$$
                *** MANITOBA***

CITY           SKY/WX    TMP DP  RH WIND       PRES   REMARKS
BRANDON        PTSUNNY   30  21  69 NE10      30.23R WCI  21
DAUPHIN        CLOUDY    30  21  69 E3        30.26S
ISLAND LAKE    SUNNY      7  -2  66 W7        30.39R WCI  -5
PILOT MOUND      N/A     28  21  74 NE10        N/A  WCI  19
THE PAS        CLOUDY    12   3  67 E6        30.31F WCI   3
THOMPSON       PTSUNNY    1 -13  51 VRB2      30.42S
WINNIPEG       CLOUDY    32  27  80 NE15      30.23R WCI  22
LYNN LAKE      PTSUNNY    1  -9  60 SE8       30.31S WCI -12
CHURCHILL      SUNNY     -9 -18  64 NW12      30.43S WCI -29
GILLAM         SUNNY      0 -17  46 NW6       30.46R WCI -12
$$
                ***SASKATCHEWAN***

CITY           SKY/WX    TMP DP  RH WIND       PRES   REMARKS
ESTEVAN        MOSUNNY   32  28  86 E13       30.15S WCI  22
KINDERSLEY     PTSUNNY   36  30  80 E14       29.97F
LLOYDMINSTER   SNOW      27  27 100 SE13G22   29.99F VSB 1/2 WCI  16
PRINCE ALBERT  PTSUNNY   30  19  64 S12       30.17S WCI  21
REGINA         MOSUNNY   37  30  75 SE14      30.11F
YORKTON        MOSUNNY   30  23  74 SE12      30.18F W



USA.gov is the U.S. government's official web portal to all federal, state and local government web resources and services.